Regional Weather Roundup
Issued by NWS Upton, NY

Current Version | Previous Version | Text Only | Print | Product List | Glossary On
Versions: 1 2 3 4 5 6 7 8 9 10 11 12 13 14 15 16 17 18 19 20 21 22 23 24 25 26 27
000
ASUS41 KOKX 240308
RWROKX

REGIONAL WEATHER ROUNDUP
NATIONAL WEATHER SERVICE NEW YORK NY
1000 PM EST THU FEB 23 2017

NOTE: "FAIR" INDICATES FEW OR NO CLOUDS BELOW 12,000 FEET WITH NO
SIGNIFICANT WEATHER AND/OR OBSTRUCTIONS TO VISIBILITY.

NYZ071-072-176-178-NJZ106-104-240400-
NEW YORK CITY METRO AREA

CITY           SKY/WX    TMP DP  RH WIND       PRES   REMARKS
Central Park   PTCLDY    63  52  67 VRB5      29.91S
Wall St Helipt NOT AVBL
LaGuardia APRT PTCLDY    58  48  69 VRB5      29.88S
Kennedy INTL   MOCLDY    48  47  96 S7        29.91R
Breezy Point     N/A     45 N/A N/A S3          N/A
Newark/Liberty MOCLDY    59  51  75 SE3       29.88S
Teterboro      CLEAR     56  50  80 SW3       29.88R
$$

NYZ177-179-078>081-240400-
LONG ISLAND NEW YORK

CITY           SKY/WX    TMP DP  RH WIND       PRES   REMARKS
Jones Beach      N/A     46 N/A N/A S12         N/A
Matinecock PT    N/A     46 N/A N/A CALM        N/A
Farmingdale    MOCLDY    49  46  90 S7        29.90S
MacArthur/ISP  PTCLDY    49  47  93 SW9       29.90R
Shirley        CLOUDY    50  47  89 SW9       29.93R
Westhampton    CLOUDY    49  45  86 SW9       29.93S
Southampton    NOT AVBL
Bridgehampton  NOT AVBL
East Hampton     N/A     48  46  90 SW9       29.92R
Montauk          N/A     49  46  90 S10       29.93S
$$

NYZ052-065-067-240400-
HUDSON VALLEY

CITY           SKY/WX    TMP DP  RH WIND       PRES   REMARKS
White Plains   PTCLDY    48  46  93 CALM      29.88S FOG
Newburgh       MOCLDY    57  52  82 CALM      29.87S
Montgomery     CLOUDY    51  47  86 CALM      29.85S
Poughkeepsie   PTCLDY    49  46  90 CALM      29.85S
Albany         PTCLDY    48  42  80 CALM      29.84R
$$

NJZ001-105-106-008-010-013-015-019>022-104-240400-
NEW JERSEY

CITY           SKY/WX    TMP DP  RH WIND       PRES   REMARKS
Newark/Liberty MOCLDY    59  51  75 SE3       29.88S
Teterboro      CLEAR     56  50  80 SW3       29.88R
Caldwell       CLEAR     52  48  86 CALM      29.89R
Somerville     MOCLDY    48  46  93 S3        29.86S
Linden         NOT AVBL
Sussex         CLEAR     52  48  86 CALM      29.88R
Andover          N/A     47  44  90 CALM      29.88R
Trenton        PTCLDY    60  52  74 S5        29.89R
Millville      CLEAR     58  52  80 VRB5      29.92R
Atlantic City  CLEAR     58  49  72 S9        29.92R
Wrightstown    CLOUDY    56  50  79 S7        29.88R
Toms River     CLEAR     55  50  83 S8        29.92
Belmar         CLOUDY    58  50  75 S7        29.92R
$$

PAZ047>061-062-071-240400-
EASTERN PENNSYLVANIA

CITY           SKY/WX    TMP DP  RH WIND       PRES   REMARKS
Philadelphia   PTCLDY    61  51  70 SW7       29.90R
Allentown      CLOUDY    64  52  64 SW3       29.87R
Scranton       CLOUDY    59  56  89 CALM      29.86S
$$

CTZ002-004>006-009-010-012-RIZ004-006-007-MAZ004-011-015-240400-
SOUTHERN NEW ENGLAND
 IN CT

CITY           SKY/WX    TMP DP  RH WIND       PRES   REMARKS
Bradley INTL   PTCLDY    49  47  93 S7        29.87R
Hartford       PTCLDY    49  47  93 CALM      29.89R FOG
Danbury        PTCLDY    46  43  89 CALM      29.90R
Wtrbury/Oxford PTCLDY    52  46  82 CALM      29.91R
Bridgeport     MOCLDY    47  43  86 E3        29.90R
Meriden        PTCLDY    47  45  93 S3        29.90R FOG
New Haven      CLOUDY    46  45  96 CALM      29.90R FOG
Chester        MOCLDY    50  48  93 SW7       29.90S
Groton         MOCLDY    43  42  97 S3        29.91S
Wilimantic     CLEAR     46  44  93 CALM      29.90R

 IN RI

CITY           SKY/WX    TMP DP  RH WIND       PRES   REMARKS
Providence     PTCLDY    53  48  83 SW12      29.89S
Block Island   PTCLDY    47  45  93 SW14      29.92S
Westerly       PTCLDY    48  45  89 SW6       29.92R
 IN MA

CITY           SKY/WX    TMP DP  RH WIND       PRES   REMARKS
Boston         PTCLDY    52  49  89 SW17      29.85R
Worcester      CLEAR     50  46  86 SW13      29.86R
Westfield      CLEAR     47  46  97 CALM      29.86R
Provincetown   CLOUDY    44  43  96 SW12G20   29.89R FOG
Nantucket      MOCLDY    43  41  93 SW12      29.94S FOG
$$

ANZ330-335-338-340-345-350-353-355-240400-
COASTAL MARINE OBSERVATIONS


STATION/POSITION TIME  SKY/WX   TEMP    WIND        PRES    VSBY  WAVE
                                AIR SEA DIR/SP/G                  HT/PER
                 (UTC)          (F)     (DEG/KT/KT) (MB)    (MI)  (FT/S)
NY HARB ENTRANCE 0150            47 44  200/ 12/ 16 1012.1          4/11
20 S FIRE ISLAND 0250            47 43  220/  8/  8 1013.3          5/12
GREAT SOUTH BAY  NOT AVBL
23 SSW MONTAUK P 0150            48 46              1013.7          3/11
15 E BARNEGAT LI 0230               43                N/A           5/12
HUDSON CANYON    0150               49              1013.9          4/11
KINGS POINT      0242            50 40              1011.9
EXECUTION ROCKS  NOT AVBL
CENTRAL LI SOUND 0230            47     240/  8/ 12   N/A           1
EASTERN LI SOUND NOT AVBL
ROBBINS REEF     0248            56     160/ 12/ 12 1012.2
$$


>>>>>>>>>>>>>>>>>>>>>>>>>>>> KEY <<<<<<<<<<<<<<<<<<<<<<<<<<<
>                                                          <
>     SKY/WX - Sky Condition/Present Weather               <
>     TMP    - Temperature in Fahrenheit                   <
>     DP     - Dew Point in Fahrenheit                     <
>     RH     - Relative Humidity in Percent                <
>     WIND   - Direction (from) and Speed in MPH           <
>     PRES   - Mean Sea Level Pressure (inches of Hg)      <
>     WCI    - Wind Chill Index                            <
>     VSB    - VISIBILITY IN MILES                         <
>     HX     - HEAT INDEX                                  <
>     TC     - TEMPERATURE IN CELSIUS                      <
>     VRB    - VARIABLE WIND DIRECTION                     <
>                                                          <
>>>>>>>>>>>>>>>>>>>>>>>>>>>> KEY <<<<<<<<<<<<<<<<<<<<<<<<<<<




USA.gov is the U.S. government's official web portal to all federal, state and local government web resources and services.